2017-071G

Last updated on Sat Jan 06 2018 00:15:03 GMT+0000 (Coordinated Universal Time)

1 43043U 17071G 18005.51472808 .00002656 00000-0 80902-4 0 9991 2 43043 51.6401 113.3383 0005649 41.3836 318.7575 15.37767427 4531

Satellite not in orbit

2017-071G